Location: Port Stanley
(42.6641°N, 81.2156°W)
Time: 05:40:37
(UTC-04:00)

ISS - Pass Details

Date: 06 July 2019
Orbit: 411 x 421 km, 51.6° (Epoch: 21 October)

Event Time Altitude Azimuth Distance (km) Brightness Sun altitude
Exits shadow 05:00:02 - 279° (W) 2,182 -0.5 -8.7°
Reaches altitude 10° 05:02:00 10° 294° (WNW) 1,494 -1.2 -8.4°
Maximum altitude 05:04:40 21° 346° (NNW) 984 -1.5 -8.0°
Drops below altitude 10° 05:07:19 10° 39° (NE) 1,490 0.7 -7.7°
Sets 05:09:44 0° 56° (NE) 2,351 2.5 -7.3°
